SICH-1
1 23657U 95046A   06179.76304306  .00000208  00000-0  23490-4 0  7854
2 23657 082.5280 047.1066 0023545 329.2150 030.7654 14.81367883583702
NOAA-15
1 25338U 98030A   06180.17453161  .00000192  00000-0  10105-3 0  5633
2 25338 098.5142 182.1179 0010373 345.3951 014.6940 14.24589154422426
RESURS
1 25394U 98043A   06179.80695787 -.00000005  00000-0  16369-4 0 04282
2 25394 098.4927 242.3060 0001992 115.9030 244.2355 14.24104704414057
FENGYUN1
1 25730U 99025A   06179.60290449  .00000254  00000-0  16218-3 0  7629
2 25730 098.6245 171.7181 0015337 106.8840 253.4012 14.11813658367624
OKEAN-0
1 25860U 99039A   06180.63900973  .00000035  00000-0  12641-4 0  7863
2 25860 097.7317 194.3921 0001980 075.0228 285.1201 14.73372471373582
NOAA-16
1 26536U 00055A   06180.11802476  .00000057  00000-0  55958-4 0  9365
2 26536 099.0659 146.8761 0011468 086.1629 274.0875 14.12349848297260
NOAA-17
1 27453U 02032A   06180.32878231 -.00000020  00000-0  10206-4 0  9555
2 27453 098.6211 252.3053 0012359 044.5079 315.7109 14.23788651208505
NOAA-18
1 28654U 05018A   06180.26238437  .00000292  00000-0  18640-3 0  5349
2 28654 098.7882 123.2804 0014135 183.6826 176.4276 14.10970565 57088
HUBBLE
1 20580U 90037B   06180.73710520  .00000351  00000-0  14517-4 0  6431
2 20580 028.4689 328.0785 0003422 312.7562 047.2738 15.00057575686987
UARS
1 21701U 91063B   06179.96967578  .00001711  00000-0  39840-4 0 08177
2 21701 056.9786 041.6483 0099361 229.5601 129.6767 15.43828510811121
PO-34
1 25520U 98064B   06180.78431467  .00000410  00000-0  10590-4 0  5008
2 25520 028.4583 306.8713 0005409 019.7458 340.3346 15.16737358423969
ISS
1 25544U 98067A   06180.99097944  .00010656  00000-0  71155-4 0  2013
2 25544 051.6299 121.5335 0010624 022.4334 068.2287 15.75941386435188
OO-38
1 26063U 00004C   06179.72190130 -.00000033  00000-0  87303-5 0 06548
2 26063 100.1889 112.8386 0037374 074.8404 285.6905 14.35769270336333
NO-45
1 26932U 01043D   06179.90896777 -.00000059  00000-0  94442-5 0 03500
2 26932 067.0518 337.1937 0008743 253.4428 106.5709 14.29528410247641
UWE-1
1 28892U 05043C   06179.71543666  .00000028  00000-0  15663-4 0 04903
2 28892 098.1643 077.7467 0017992 132.1578 228.1143 14.59366399035650
CO-58
1 28895U 05043F   06180.66603392  .00000066  00000-0  23775-4 0  4719
2 28895 098.1640 078.7664 0018450 129.3711 230.9139 14.59419658 35672
NCUBE2
1 28897U 05043H   06179.68223855  .00000101  00000-0  30935-4 0 00872
2 28897 098.1629 077.7845 0017778 135.4949 224.7702 14.59574523027800
